Terug naar catalogus

IRIDIUM 33 DEB

LostPO
NORAD 36482·DEBRIS·🇺🇸 United States

Gelanceerd Sep 14, 1997 vanaf Baikonur Cosmodrome

Loading…

Volgende Passages (komende 24 uur)

TLE

VerouderdSource: Space-Track

Epoch: Jun 29, 2022, 05:49 UTC

1 36482U 97051VY  22180.24288269  .00001957  00000-0  43990-3 0  9999
2 36482  86.3451 165.2718 0020807 143.7648 216.4974 14.55895794682659

Volg IRIDIUM 33 DEB in realtime met AllMySat

Download on the App Store